Location: ?????????
(55.6553°N, 38.9075°E)
Time: 23:35:55
(UTC+00:00)

SL-8 Rocket - Pass Details

Date: 18 October 2019
Orbit: 957 x 991 km, 82.9° (Epoch: 14 November)

Event Time Altitude Azimuth Distance (km) Brightness Sun altitude
Rises 03:03:59 0° 183° (S) 3,649 7.0 -8.6°
Reaches altitude 10° 03:06:29 10° 182° (S) 2,702 6.4 -8.3°
Maximum altitude 03:12:39 77° 98° (E) 992 4.3 -7.4°
Drops below altitude 10° 03:18:50 10° 13° (NNE) 2,705 6.4 -6.5°
Sets 03:21:20 0° 13° (NNE) 3,654 7.1 -6.2°
